When you browse on this site, cookies collect data to enhance your experience and personalize the content and advertising you see.
Visit our Privacy Policy to learn more. By continuing to use the site, you agree to this use of cookies and data.
  • en Suisse
  • Liste des pays
  • À 7 jours
  • Température de l'eau
  • Carte satellitaire
  • Carte météo
  • Widgets météo
  • user-avatar
    Se connecter

    Météo par heure à Tovsta

    Ce jour, 19 Février, Mardi

    Heure Température Précipitation Vent Pression Humidité
    00:00 -1°C° 0 mm 1 m/s 750 mmHg 85%
    01:00 -2°C° 0 mm 1 m/s 750 mmHg 85%
    02:00 -5°C° 0 mm 0 m/s 750 mmHg 87%
    03:00 -4°C° 0 mm 1 m/s 750 mmHg 87%
    04:00 -4°C° 0 mm 1 m/s 750 mmHg 87%
    05:00 -4°C° 0 mm 1 m/s 750 mmHg 87%
    06:00 -4°C° 0 mm 1 m/s 750 mmHg 87%
    07:00 -5°C° 0 mm 2 m/s 750 mmHg 87%
    08:00 -5°C° 0 mm 2 m/s 750 mmHg 87%
    09:00 -4°C° 0 mm 2 m/s 750 mmHg 86%
    10:00 -2°C° 0 mm 3 m/s 750 mmHg 85%
    11:00 -1°C° 0 mm 3 m/s 750 mmHg 84%
    12:00 -1°C° 0 mm 3 m/s 749 mmHg 83%
    13:00 0°C° 0 mm 3 m/s 749 mmHg 83%
    14:00 +1°C° 0 mm 3 m/s 749 mmHg 82%
    15:00 0°C° 0 mm 3 m/s 748 mmHg 80%
    16:00 0°C° 0 mm 3 m/s 748 mmHg 78%
    17:00 -1°C° 0 mm 3 m/s 747 mmHg 76%
    18:00 -2°C° 0 mm 4 m/s 747 mmHg 75%
    19:00 -2°C° 0 mm 4 m/s 746 mmHg 74%
    20:00 -2°C° 0 mm 5 m/s 746 mmHg 73%
    21:00 -2°C° 0 mm 5 m/s 746 mmHg 76%
    22:00 -2°C° 0 mm 5 m/s 746 mmHg 78%
    23:00 -3°C° 0 mm 6 m/s 745 mmHg 81%

    Demain, 20 Février, Mercredi

    Heure Température Précipitation Vent Pression Humidité
    00:00 -3°C° 0 mm 6 m/s 745 mmHg 84%
    01:00 -3°C° 0 mm 6 m/s 744 mmHg 87%
    02:00 -3°C° 0 mm 6 m/s 744 mmHg 90%
    03:00 -3°C° 0 mm 6 m/s 743 mmHg 91%
    04:00 -3°C° 0 mm 6 m/s 743 mmHg 92%
    05:00 -2°C° 0 mm 6 m/s 742 mmHg 94%
    06:00 -1°C° 0 mm 5 m/s 742 mmHg 95%
    07:00 -1°C° 0 mm 5 m/s 742 mmHg 96%
    08:00 -1°C° 0 mm 5 m/s 742 mmHg 97%
    09:00 0°C° 0 mm 5 m/s 742 mmHg 97%
    10:00 0°C° 0 mm 5 m/s 741 mmHg 96%
    11:00 +1°C° 0 mm 5 m/s 741 mmHg 96%
    12:00 +1°C° 0 mm 5 m/s 741 mmHg 95%
    13:00 +2°C° 0 mm 5 m/s 741 mmHg 93%
    14:00 +3°C° 0 mm 4 m/s 741 mmHg 92%
    15:00 +1°C° 0.2 mm 4 m/s 741 mmHg 93%
    16:00 +1°C° 0.2 mm 4 m/s 741 mmHg 93%
    17:00 0°C° 0.2 mm 4 m/s 741 mmHg 94%
    18:00 0°C° 0 mm 4 m/s 741 mmHg 93%
    19:00 0°C° 0 mm 4 m/s 742 mmHg 91%
    20:00 0°C° 0 mm 4 m/s 742 mmHg 90%
    21:00 -1°C° 0 mm 4 m/s 742 mmHg 89%
    22:00 -1°C° 0 mm 4 m/s 742 mmHg 88%
    23:00 -1°C° 0 mm 4 m/s 742 mmHg 88%

    Après-demain, 21 Février, Jeudi

    Heure Température Précipitation Vent Pression Humidité
    00:00 -1°C° 0 mm 4 m/s 742 mmHg 87%
    01:00 -1°C° 0 mm 5 m/s 742 mmHg 86%
    02:00 -1°C° 0 mm 5 m/s 742 mmHg 86%
    03:00 -1°C° 0 mm 5 m/s 741 mmHg 85%
    04:00 -2°C° 0 mm 6 m/s 741 mmHg 85%
    05:00 -2°C° 0 mm 6 m/s 741 mmHg 85%
    06:00 -2°C° 0 mm 6 m/s 741 mmHg 86%
    07:00 -2°C° 0 mm 6 m/s 742 mmHg 86%
    08:00 -2°C° 0 mm 6 m/s 742 mmHg 87%
    09:00 -2°C° 0 mm 7 m/s 742 mmHg 79%
    10:00 -2°C° 0 mm 7 m/s 742 mmHg 71%
    11:00 -1°C° 0 mm 8 m/s 742 mmHg 64%
    12:00 -1°C° 0 mm 8 m/s 742 mmHg 61%
    13:00 -1°C° 0 mm 8 m/s 742 mmHg 59%
    14:00 -1°C° 0 mm 8 m/s 742 mmHg 57%
    15:00 -2°C° 0 mm 7 m/s 742 mmHg 60%
    16:00 -1°C° 0 mm 5 m/s 742 mmHg 63%
    17:00 -2°C° 0 mm 4 m/s 742 mmHg 66%
    18:00 -2°C° 0 mm 4 m/s 742 mmHg 67%
    19:00 -3°C° 0 mm 4 m/s 743 mmHg 68%
    20:00 -2°C° 0 mm 3 m/s 743 mmHg 69%
    21:00 -2°C° 0 mm 3 m/s 743 mmHg 71%
    22:00 -3°C° 0 mm 2 m/s 743 mmHg 72%
    23:00 -3°C° 0 mm 2 m/s 744 mmHg 74%

    22 Février, Vendredi

    Heure Température Précipitation Vent Pression Humidité
    00:00 -3°C° 0 mm 2 m/s 744 mmHg 72%
    01:00 -3°C° 0 mm 2 m/s 744 mmHg 70%
    02:00 -3°C° 0 mm 2 m/s 744 mmHg 69%
    03:00 -3°C° 0 mm 2 m/s 744 mmHg 67%
    04:00 -4°C° 0 mm 2 m/s 743 mmHg 66%
    05:00 -5°C° 0 mm 3 m/s 743 mmHg 65%
    06:00 -5°C° 0 mm 3 m/s 744 mmHg 65%
    07:00 -5°C° 0 mm 4 m/s 744 mmHg 65%
    08:00 -6°C° 0 mm 5 m/s 744 mmHg 66%
    09:00 -7°C° 0.1 mm 5 m/s 745 mmHg 66%
    10:00 -8°C° 0.1 mm 6 m/s 745 mmHg 66%
    11:00 -9°C° 0.1 mm 7 m/s 746 mmHg 67%
    12:00 -9°C° 0 mm 7 m/s 746 mmHg 64%
    13:00 -10°C° 0 mm 8 m/s 746 mmHg 61%
    14:00 -11°C° 0 mm 8 m/s 746 mmHg 58%
    15:00 -11°C° 0 mm 8 m/s 747 mmHg 59%
    16:00 -11°C° 0 mm 8 m/s 747 mmHg 59%
    17:00 -12°C° 0 mm 8 m/s 748 mmHg 60%
    18:00 -12°C° 0 mm 8 m/s 748 mmHg 58%
    19:00 -12°C° 0 mm 8 m/s 749 mmHg 57%
    20:00 -12°C° 0 mm 8 m/s 749 mmHg 56%
    21:00 -12°C° 0 mm 8 m/s 750 mmHg 55%
    22:00 -12°C° 0 mm 8 m/s 750 mmHg 55%
    23:00 -12°C° 0 mm 8 m/s 750 mmHg 55%

    23 Février, Samedi

    Heure Température Précipitation Vent Pression Humidité
    00:00 -12°C° 0 mm 7 m/s 750 mmHg 55%
    01:00 -12°C° 0 mm 7 m/s 751 mmHg 56%
    02:00 -11°C° 0 mm 6 m/s 751 mmHg 57%
    03:00 -12°C° 0 mm 6 m/s 751 mmHg 60%
    04:00 -12°C° 0 mm 6 m/s 751 mmHg 62%
    05:00 -12°C° 0 mm 6 m/s 751 mmHg 65%
    06:00 -12°C° 0 mm 6 m/s 751 mmHg 65%
    07:00 -12°C° 0 mm 6 m/s 752 mmHg 66%
    08:00 -12°C° 0 mm 6 m/s 752 mmHg 66%
    09:00 -12°C° 0 mm 6 m/s 752 mmHg 63%
    10:00 -12°C° 0 mm 6 m/s 752 mmHg 61%
    11:00 -11°C° 0 mm 6 m/s 752 mmHg 58%
    12:00 -11°C° 0 mm 6 m/s 752 mmHg 57%
    13:00 -11°C° 0 mm 6 m/s 752 mmHg 56%
    14:00 -10°C° 0 mm 6 m/s 752 mmHg 55%
    15:00 -11°C° 0 mm 6 m/s 752 mmHg 56%
    16:00 -11°C° 0 mm 6 m/s 752 mmHg 58%
    17:00 -11°C° 0 mm 6 m/s 752 mmHg 60%
    18:00 -11°C° 0 mm 6 m/s 752 mmHg 62%
    19:00 -11°C° 0 mm 5 m/s 753 mmHg 64%
    20:00 -11°C° 0 mm 5 m/s 753 mmHg 66%
    21:00 -11°C° 0 mm 5 m/s 753 mmHg 68%
    22:00 -12°C° 0 mm 5 m/s 753 mmHg 69%
    23:00 -12°C° 0 mm 5 m/s 753 mmHg 70%

    24 Février, Dimanche

    Heure Température Précipitation Vent Pression Humidité
    00:00 -12°C° 0 mm 5 m/s 753 mmHg 72%
    01:00 -12°C° 0 mm 5 m/s 753 mmHg 74%
    02:00 -12°C° 0 mm 5 m/s 753 mmHg 75%
    03:00 -12°C° 0 mm 5 m/s 753 mmHg 76%
    04:00 -13°C° 0 mm 5 m/s 753 mmHg 77%
    05:00 -13°C° 0 mm 5 m/s 753 mmHg 78%
    06:00 -13°C° 0 mm 5 m/s 753 mmHg 77%
    07:00 -13°C° 0 mm 5 m/s 754 mmHg 77%
    08:00 -13°C° 0 mm 5 m/s 754 mmHg 77%
    09:00 -12°C° 0 mm 5 m/s 754 mmHg 74%
    10:00 -12°C° 0 mm 5 m/s 754 mmHg 70%
    11:00 -11°C° 0 mm 5 m/s 755 mmHg 67%
    12:00 -11°C° 0 mm 5 m/s 754 mmHg 67%
    13:00 -10°C° 0 mm 5 m/s 754 mmHg 66%
    14:00 -10°C° 0 mm 5 m/s 754 mmHg 66%
    15:00 -10°C° 0 mm 5 m/s 754 mmHg 68%
    16:00 -10°C° 0 mm 5 m/s 754 mmHg 70%
    17:00 -10°C° 0 mm 5 m/s 754 mmHg 72%
    18:00 -11°C° 0 mm 5 m/s 755 mmHg 73%
    19:00 -11°C° 0 mm 5 m/s 755 mmHg 74%
    20:00 -11°C° 0 mm 5 m/s 755 mmHg 75%
    21:00 -11°C° 0 mm 5 m/s 755 mmHg 76%
    22:00 -12°C° 0 mm 5 m/s 756 mmHg 76%
    23:00 -11°C° 0 mm 4 m/s 756 mmHg 77%
    Voir plus